Location: Azul
(36.7830°S, 59.8500°W)
Time: 12:21:41
(UTC-03:00)

Hubble Space Telescope - Visible Passes

Search period start: 04 August 2021 00:00
Search period end: 14 August 2021 00:00
Orbit: 535 x 539 km, 28.5° (Epoch: 03 August)

Date Brightness Start Highest point End Pass type
(mag) Time Alt. Az. Time Alt. Az. Time Alt. Az.
04 Aug 3.4 05:19:28 16° NE 05:19:28 16° NE 05:20:38 10° ENE visible
04 Aug 2.7 06:54:47 10° WNW 06:57:48 19° NNW 07:00:48 10° NE visible
05 Aug 3.7 05:09:07 12° NE 05:09:07 12° NE 05:09:33 10° NE visible
05 Aug 2.8 06:44:25 12° NW 06:46:42 17° NNW 06:49:28 10° NNE visible
06 Aug 2.9 06:34:05 13° NW 06:35:37 15° NNW 06:38:01 10° NNE visible
07 Aug 3.0 06:23:45 12° NNW 06:24:31 13° NNW 06:26:23 10° N visible
08 Aug 3.2 06:13:28 10° NNW 06:13:28 10° NNW 06:14:14 10° N visible
